This demonstration page uses our WeatherBlox Daily Observations layout. Learn more.

Left ArrowRight Arrow

30.21309, -93.2044

Hourly Observations for August 20, 2022

Temp ( °F °C ) Dew Point ( °F °C ) Humidity (%) Winds ( mph kmh ) Pressure ( in mb ) Visibility ( mi km ) Precip ( " mm )
12:15 am 00:15 Clear 74 23.6 72 22.4 93 93 SE 3 6 29.99 1016 10 16 0.00 0.00
12:35 am 00:35 Clear 75 23.7 73 22.5 93 93 Calm 29.99 1016 10 16 0.00 0.00
12:55 am 00:55 Clear 75 23.8 72 22.4 92 92 Calm 29.98 1015 10 16 0.00 0.00
1:15 am 01:15 Clear 75 23.9 73 22.5 92 92 Calm 29.99 1016 10 16 0.00 0.00
1:35 am 01:35 Clear 75 24 72 22 89 89 SE 3 6 29.99 1016 10 16 0.00 0.00
1:55 am 01:55 Clear 74 23.6 72 22.4 93 93 SE 7 11 29.98 1015 10 16 0.00 0.00
2:15 am 02:15 Clear 75 23.8 73 22.7 94 94 SSE 3 6 29.98 1015 10 16 0.00 0.00
2:35 am 02:35 Clear 75 24 73 22.8 93 93 Calm 29.98 1015 10 16 0.00 0.00
2:55 am 02:55 Clear 75 24.1 73 22.8 92 92 Calm 29.99 1016 10 16 0.00 0.00
3:15 am 03:15 Clear 75 24.1 73 22.8 92 92 E 3 6 29.99 1016 10 16 0.00 0.00
3:35 am 03:35 Clear 76 24.2 73 23 93 93 ENE 3 6 29.99 1016 10 16 0.00 0.00
3:55 am 03:55 Clear 76 24.2 73 23 93 93 NE 3 6 29.99 1016 10 16 0.00 0.00
4:15 am 04:15 Clear 76 24.4 74 23.2 93 93 ENE 3 6 29.99 1016 10 16 0.00 0.00
4:35 am 04:35 Clear 76 24.5 74 23.3 93 93 E 3 6 29.99 1016 10 16 0.00 0.00
4:55 am 04:55 Clear 76 24.2 74 23.1 94 94 Calm 29.99 1016 10 16 0.00 0.00
5:15 am 05:15 Clear 76 24.3 74 23.3 94 94 E 3 6 29.99 1016 10 16 0.00 0.00
5:35 am 05:35 Clear 76 24.2 74 23.1 94 94 E 5 7 30.00 1016 10 16 0.00 0.00
6:00 am 06:00 Mostly Clear 75 24 73 23 94 94 E 5 7 30.00 1016 10 16 0.00 0.00
6:54 am 06:54 Mostly Sunny 75 24 73 23 94 94 ENE 5 7 30.03 1017 10 16 0.00 0.00
7:55 am 07:55 Mostly Sunny 79 26 75 24 89 89 E 5 7 30.05 1018 10 16 0.00 0.00
8:51 am 08:51 Mostly Cloudy 81 27 77 25 89 89 ESE 7 11 30.06 1018 10 16 0.00 0.00
9:33 am 09:33 Mostly Cloudy with Thunderstorms 77 25 72 22 83 83 SSW 16 26 30.08 1019 10 16 0.00 0.00
9:55 am 09:55 Mostly Cloudy with Thunderstorms 77 25 72 22 83 83 ESE 3 6 30.07 1018 10 16 0.00 0.00
10:49 am 10:49 Mostly Cloudy with Light Rain 79 26 75 24 89 89 S 7 11 30.09 1019 10 16 0.00 0.00
11:48 am 11:48 Partly Cloudy 82 28 73 23 74 74 S 7 11 30.08 1019 10 16 0.00 0.00
12:46 pm 12:46 Partly Cloudy 84 29 75 24 74 74 S 16 26 30.08 1019 10 16 0.00 0.00
1:51 pm 13:51 Partly Cloudy 84 29 75 24 74 74 SSW 8 13 30.04 1017 10 16 0.00 0.00
2:55 pm 14:55 Mostly Sunny 86 30 75 24 70 70 Calm 30.05 1018 10 16 0.00 0.00
3:55 pm 15:55 Mostly Sunny 84 29 75 24 74 74 S 6 9 30.03 1017 10 16 0.00 0.00
5:55 pm 17:55 Partly Cloudy 84 29 77 25 79 79 Calm 30.02 1017 10 16 0.00 0.00
6:22 pm 18:22 Partly Cloudy with Thunderstorms 84 29 77 25 79 79 Calm 30.03 1017 10 16 0.00 0.00
6:50 pm 18:50 Mostly Cloudy with Thunderstorms 79 26 72 22 79 79 WSW 23 37 30.05 1018 1 2 0.00 0.00
7:46 pm 19:46 Mostly Sunny 75 24 72 22 89 89 NNE 7 11 30.05 1018 10 16 0.00 0.00
8:55 pm 20:55 Mostly Clear 75 24 73 23 94 94 Calm 30.05 1018 10 16 0.00 0.00
9:45 pm 21:45 Mostly Clear 75 24 73 23 94 94 Calm 30.05 1018 10 16 0.00 0.00
10:15 pm 22:15 Clear 76 24.7 74 23.6 94 94 ESE 5 7 30.05 1018 10 16 0.00 0.00
10:35 pm 22:35 Clear 76 24.7 74 23.6 94 94 SE 3 6 30.04 1017 10 16 0.00 0.00
10:55 pm 22:55 Clear 77 24.8 75 23.7 94 94 Calm 30.04 1017 10 16 0.00 0.00
11:15 pm 23:15 Clear 76 24.6 74 23.5 94 94 SE 5 7 30.04 1017 10 16 0.00 0.00
11:35 pm 23:35 Clear 76 24.3 74 23.4 95 95 SE 3 6 30.03 1017 10 16 0.00 0.00
11:55 pm 23:55 Clear 76 24.3 74 23.4 95 95 SSE 5 7 30.04 1017 10 16 0.00 0.00

Powered by AerisWeather